Location: *
(49.4547°N, 7.9131°E)
Time: 12:38:32
(UTC+00:00)

Meteor 1-4 Rocket - Pass Details

Date: 22 September 2019
Orbit: 449 x 504 km, 81.2° (Epoch: 16 October)

Event Time Altitude Azimuth Distance (km) Brightness Sun altitude
Rises 18:00:32 0° 357° (N) 2,517 6.3 -6.2°
Reaches altitude 10° 18:02:52 10° 9° (N) 1,626 5.2 -6.6°
Maximum altitude 18:05:57 27° 70° (ENE) 910 3.5 -7.1°
Drops below altitude 10° 18:08:59 10° 131° (SE) 1,593 4.7 -7.6°
Enters shadow 18:10:08 - 139° (SE) 2,027 5.2 -7.8°
